Time,TemperatureF,DewpointF,PressureIn,WindDirection,WindDirectionDegrees,WindSpeedMPH,WindSpeedGustMPH,Humidity,HourlyPrecipIn,Conditions,Clouds,dailyrainin,SoftwareType,DateUTC
2013-04-14 00:00:00,56.0,56.0,29.44,North,-999,-999.0,-999.0,100,-99.99,,,-99.99,,2013-04-13 23:00:00,
2013-04-14 00:32:00,56.0,56.0,29.44,North,-999,-999.0,-999.0,100,-99.99,,,-99.99,,2013-04-13 23:32:00,
2013-04-14 00:41:00,56.0,56.0,29.44,North,-999,-999.0,-999.0,100,-99.99,,,-99.99,,2013-04-13 23:41:00,
2013-04-14 00:52:00,56.0,56.0,29.44,North,-999,-999.0,-999.0,100,-99.99,,,-99.99,,2013-04-13 23:52:00,
2013-04-14 01:00:00,58.0,54.0,29.43,North,-999,-999.0,-999.0,88,-99.99,,,-99.99,,2013-04-14 00:00:00,
2013-04-14 01:41:00,58.0,54.0,29.43,North,-999,-999.0,-999.0,88,-99.99,,,-99.99,,2013-04-14 00:41:00,
2013-04-14 01:52:00,58.0,54.0,29.43,North,-999,-999.0,-999.0,88,-99.99,,,-99.99,,2013-04-14 00:52:00,
2013-04-14 02:00:00,57.0,53.0,29.44,North,-999,-999.0,-999.0,84,-99.99,,,-99.99,,2013-04-14 01:00:00,
2013-04-14 02:41:00,57.0,53.0,29.44,North,-999,-999.0,-999.0,84,-99.99,,,-99.99,,2013-04-14 01:41:00,
2013-04-14 02:52:00,57.0,53.0,29.44,North,-999,-999.0,-999.0,84,-99.99,,,-99.99,,2013-04-14 01:52:00,
2013-04-14 03:00:00,49.0,49.0,29.35,North,-999,-999.0,-999.0,100,-99.99,,,-99.99,,2013-04-14 02:00:00,
2013-04-14 03:31:00,49.0,49.0,29.35,North,-999,-999.0,-999.0,100,-99.99,,,-99.99,,2013-04-14 02:31:00,
2013-04-14 03:41:00,49.0,49.0,29.35,North,-999,-999.0,-999.0,100,-99.99,,,-99.99,,2013-04-14 02:41:00,
2013-04-14 03:52:00,49.0,49.0,29.35,North,-999,-999.0,-999.0,100,-99.99,,,-99.99,,2013-04-14 02:52:00,
2013-04-14 04:00:00,49.0,49.0,29.40,North,-999,-999.0,-999.0,100,-99.99,,,-99.99,,2013-04-14 03:00:00,
2013-04-14 04:42:00,49.0,49.0,29.40,North,-999,-999.0,-999.0,100,-99.99,,,-99.99,,2013-04-14 03:42:00,
2013-04-14 04:52:00,49.0,49.0,29.40,North,-999,-999.0,-999.0,100,-99.99,,,-99.99,,2013-04-14 03:52:00,
2013-04-14 05:00:00,49.0,49.0,29.43,North,-999,-999.0,-999.0,100,-99.99,,,-99.99,,2013-04-14 04:00:00,
2013-04-14 05:42:00,49.0,49.0,29.43,North,-999,-999.0,-999.0,100,-99.99,,,-99.99,,2013-04-14 04:42:00,
2013-04-14 05:52:00,49.0,49.0,29.43,North,-999,-999.0,-999.0,100,-99.99,,,-99.99,,2013-04-14 04:52:00,
2013-04-14 06:00:00,50.0,50.0,29.52,North,-999,-999.0,-999.0,100,-99.99,,,-99.99,,2013-04-14 05:00:00,
2013-04-14 06:41:00,50.0,50.0,29.52,North,-999,-999.0,-999.0,100,-99.99,,,-99.99,,2013-04-14 05:41:00,
2013-04-14 06:52:00,50.0,50.0,29.52,North,-999,-999.0,-999.0,100,-99.99,,,-99.99,,2013-04-14 05:52:00,
2013-04-14 08:00:00,50.0,50.0,29.50,North,-999,-999.0,-999.0,100,-99.99,,,-99.99,,2013-04-14 07:00:00,
2013-04-14 08:41:00,50.0,50.0,29.50,North,-999,-999.0,-999.0,100,-99.99,,,-99.99,,2013-04-14 07:41:00,
2013-04-14 08:52:00,50.0,50.0,29.50,North,-999,-999.0,-999.0,100,-99.99,,,-99.99,,2013-04-14 07:52:00,
2013-04-14 09:00:00,50.0,50.0,29.54,North,-999,-999.0,-999.0,100,-99.99,,,-99.99,,2013-04-14 08:00:00,
2013-04-14 09:41:00,50.0,50.0,29.54,North,-999,-999.0,-999.0,100,-99.99,,,-99.99,,2013-04-14 08:41:00,
2013-04-14 09:51:00,50.0,50.0,29.54,North,-999,-999.0,-999.0,100,-99.99,,,-99.99,,2013-04-14 08:51:00,
2013-04-14 10:00:00,46.0,46.0,29.52,North,-999,-999.0,-999.0,100,-99.99,,,-99.99,,2013-04-14 09:00:00,
2013-04-14 10:42:00,46.0,46.0,29.52,North,-999,-999.0,-999.0,100,-99.99,,,-99.99,,2013-04-14 09:42:00,
2013-04-14 10:53:00,46.0,46.0,29.52,North,-999,-999.0,-999.0,100,-99.99,,,-99.99,,2013-04-14 09:53:00,
2013-04-14 11:00:00,47.0,47.0,29.46,North,-999,-999.0,-999.0,100,-99.99,,,-99.99,,2013-04-14 10:00:00,
2013-04-14 11:41:00,47.0,47.0,29.46,North,-999,-999.0,-999.0,100,-99.99,,,-99.99,,2013-04-14 10:41:00,
2013-04-14 11:52:00,47.0,47.0,29.46,North,-999,-999.0,-999.0,100,-99.99,,,-99.99,,2013-04-14 10:52:00,
2013-04-14 12:00:00,56.0,50.0,29.46,North,-999,-999.0,-999.0,80,-99.99,,,-99.99,,2013-04-14 11:00:00,
2013-04-14 12:41:00,56.0,50.0,29.46,North,-999,-999.0,-999.0,80,-99.99,,,-99.99,,2013-04-14 11:41:00,
2013-04-14 12:52:00,56.0,50.0,29.46,North,-999,-999.0,-999.0,80,-99.99,,,-99.99,,2013-04-14 11:52:00,
2013-04-14 13:00:00,59.0,47.0,29.47,North,-999,-999.0,-999.0,64,-99.99,,,-99.99,,2013-04-14 12:00:00,
2013-04-14 13:41:00,59.0,47.0,29.47,North,-999,-999.0,-999.0,64,-99.99,,,-99.99,,2013-04-14 12:41:00,
2013-04-14 13:51:00,59.0,47.0,29.47,North,-999,-999.0,-999.0,64,-99.99,,,-99.99,,2013-04-14 12:51:00,
2013-04-14 14:00:00,60.0,47.0,29.48,North,-999,-999.0,-999.0,63,-99.99,,,-99.99,,2013-04-14 13:00:00,
2013-04-14 14:41:00,60.0,47.0,29.48,North,-999,-999.0,-999.0,63,-99.99,,,-99.99,,2013-04-14 13:41:00,
2013-04-14 14:52:00,60.0,47.0,29.48,North,-999,-999.0,-999.0,63,-99.99,,,-99.99,,2013-04-14 13:52:00,
2013-04-14 15:00:00,60.0,46.0,29.49,North,-999,-999.0,-999.0,60,-99.99,,,-99.99,,2013-04-14 14:00:00,
2013-04-14 15:41:00,60.0,46.0,29.49,North,-999,-999.0,-999.0,60,-99.99,,,-99.99,,2013-04-14 14:41:00,
2013-04-14 15:51:00,60.0,46.0,29.49,North,-999,-999.0,-999.0,60,-99.99,,,-99.99,,2013-04-14 14:51:00,
2013-04-14 16:00:00,55.0,47.0,29.45,North,-999,-999.0,-999.0,73,-99.99,,,-99.99,,2013-04-14 15:00:00,
2013-04-14 16:42:00,55.0,47.0,29.45,North,-999,-999.0,-999.0,73,-99.99,,,-99.99,,2013-04-14 15:42:00,
2013-04-14 16:52:00,55.0,47.0,29.45,North,-999,-999.0,-999.0,73,-99.99,,,-99.99,,2013-04-14 15:52:00,
2013-04-14 17:00:00,49.0,49.0,29.43,North,-999,-999.0,-999.0,100,-99.99,,,-99.99,,2013-04-14 16:00:00,
2013-04-14 17:42:00,49.0,49.0,29.43,North,-999,-999.0,-999.0,100,-99.99,,,-99.99,,2013-04-14 16:42:00,
2013-04-14 17:52:00,49.0,49.0,29.43,North,-999,-999.0,-999.0,100,-99.99,,,-99.99,,2013-04-14 16:52:00,
2013-04-14 18:00:00,49.0,49.0,29.56,North,-999,-999.0,-999.0,100,-99.99,,,-99.99,,2013-04-14 17:00:00,
2013-04-14 18:32:00,49.0,49.0,29.56,North,-999,-999.0,-999.0,100,-99.99,,,-99.99,,2013-04-14 17:32:00,
2013-04-14 18:41:00,49.0,49.0,29.56,North,-999,-999.0,-999.0,100,-99.99,,,-99.99,,2013-04-14 17:41:00,
2013-04-14 18:52:00,49.0,49.0,29.56,North,-999,-999.0,-999.0,100,-99.99,,,-99.99,,2013-04-14 17:52:00,
2013-04-14 19:00:00,51.0,51.0,29.63,North,-999,-999.0,-999.0,100,-99.99,,,-99.99,,2013-04-14 18:00:00,
2013-04-14 19:42:00,51.0,51.0,29.63,North,-999,-999.0,-999.0,100,-99.99,,,-99.99,,2013-04-14 18:42:00,
2013-04-14 19:51:00,51.0,51.0,29.63,North,-999,-999.0,-999.0,100,-99.99,,,-99.99,,2013-04-14 18:51:00,
2013-04-14 20:00:00,51.0,51.0,29.64,North,-999,-999.0,-999.0,99,-99.99,,,-99.99,,2013-04-14 19:00:00,
2013-04-14 20:31:00,51.0,51.0,29.64,North,-999,-999.0,-999.0,99,-99.99,,,-99.99,,2013-04-14 19:31:00,
2013-04-14 20:42:00,51.0,51.0,29.64,North,-999,-999.0,-999.0,99,-99.99,,,-99.99,,2013-04-14 19:42:00,
2013-04-14 20:52:00,51.0,51.0,29.64,North,-999,-999.0,-999.0,99,-99.99,,,-99.99,,2013-04-14 19:52:00,
2013-04-14 21:00:00,49.0,49.0,29.57,North,-999,-999.0,-999.0,100,-99.99,,,-99.99,,2013-04-14 20:00:00,
2013-04-14 21:41:00,49.0,49.0,29.57,North,-999,-999.0,-999.0,100,-99.99,,,-99.99,,2013-04-14 20:41:00,
2013-04-14 21:52:00,49.0,49.0,29.57,North,-999,-999.0,-999.0,100,-99.99,,,-99.99,,2013-04-14 20:52:00,
2013-04-14 22:00:00,49.0,49.0,29.51,North,-999,-999.0,-999.0,100,-99.99,,,-99.99,,2013-04-14 21:00:00,
2013-04-14 22:42:00,49.0,49.0,29.51,North,-999,-999.0,-999.0,100,-99.99,,,-99.99,,2013-04-14 21:42:00,
2013-04-14 22:52:00,49.0,49.0,29.51,North,-999,-999.0,-999.0,100,-99.99,,,-99.99,,2013-04-14 21:52:00,
2013-04-14 23:00:00,49.0,49.0,29.51,North,-999,-999.0,-999.0,100,-99.99,,,-99.99,,2013-04-14 22:00:00,
2013-04-14 23:42:00,49.0,49.0,29.51,North,-999,-999.0,-999.0,100,-99.99,,,-99.99,,2013-04-14 22:42:00,
2013-04-14 23:52:00,49.0,49.0,29.51,North,-999,-999.0,-999.0,100,-99.99,,,-99.99,,2013-04-14 22:52:00,